EHI
0 0 0 0 0 0 0 0 0 0 0 0 0 0 0 0 0 0 0 0 0 0 0 0 0 0 0 0 0 0 0 0 0 0 0 0 0 0 0 0 0 0 0 0
0 0 0 0 0 0 0 0 0 0 0 0 0 0 0 0 0 0 0 0 0 0 0 0 0 0 0 0 0 0 0 0 0 0 0 0 0 0 0 0 0 0 0 0
0 0 0 0 0 0 0 0 0 0 0 0 0 0 0 0 0 0 0 0 0 0 0 0 0 0 0 0 0 0 0 0 0 0 0 0 0 0 0 0 0 0 0 0
0 0 0 0 0 0 0 0 0 0 0 0 0 0 0 0 0 0 0 0 0 0 0 0 0 0 0 0 0 0 0 0 0 0 0 0 0 0 0 0 0 0 0 0
0 0 0 0 0 0 0 0 0 0 0 0 0 0 0 0 0 0 0 0 0 0 0 0 0 0 0 0 0 0 0 0 0 0 0 0 0 0 0 0 0 0 0 0
0 0 0 0 0 0 0 0 0 0 0 0 0 0 0 0 0 0 0 0 0 0 0 0 0 0 0 0 0 0 0 0 0 0 0 0 0 0 0 0 0 0 0 0
0 0 0 0 0 0 0 0 0 0 0 0 0 0 0 0 0 0 0 0 0 0 0 0 0 0 0 0 0 0 0 0 0 0 0 0 0 0 0 0 0 0 0 0
0 0 0 0 0 0 0 0 0 0 0 0 0 0 0 0 0 0 0 0 0 0 0 0 0 0 0 0 0 0 0 0 0 0 0 0 0 0 0 0 0 0 0 0
0 0 0 0 0 0 0 0 0 0 0 0 0 0 0 0 0 0 0 0 0 0 0 0 0 0 0 0 0 0 0 0 0 0 0 0 0 0 0 0 0 0 0 0
0 0 0 0 0 0 0 0 0 0 0 0 0 0 0 0 0 0 0 0 0 0 0 0 0 0 0 0 0 0 0 0 0 0 0 0 0 0 0 0 0 0 0 0
0 0 0 0 0 0 0 0 0 0 0 0 0 0 0 0 0 0 0 0 0 0 0 0 0 0 0 0 0 0 0 0 0 0 0 0 0 0 0 0 0 0 0 0
0 0 0 0 0 0 0 0 0 0 0 0 0 0 0 0 0 0 0 0 0 0 0 0 0 0 0 0 0 0 0 0 0 0 0 0 0 0 0 0 0 0 0 0
0 0 0 0 0 0 0 0 0 0 0 0 0 0 0 0 0 0 0 0 0 0 0 0 0 0 0 0 0 0 0 0 0 0 0 0 0 0 0 0 0 0 0 0
0 0 0 0 0 0 0 0 0 0 0 0 0 0 0 0 0 0 0 0 0 0 0 0 0 0 0 0 0 0 0 0 0 0 0 0 0 0 0 0 0 0 0 0
0 0 0 0 0 0 0 0 0 0 0 0 0 0 0 0 0 0 0 0 0 0 0 0 0 0 0 0 0 0 0 0 0 0 0 0 0 0 0 0 0 0 0 0
0 0 0 0 0 0 0 0 0 0 0 0 0 0 0 0 0 0 0 0 0 0 0 0 0 0 0 0 0 0 0 0 0 0 0 0 0 0 0 0 0 0 0 0
0 0 0 0 0 0 0 0 0 0 0 0 0 0 0 0 0 0 0 0 0 0 0 0 0 0 0 0 0 0 0 0 0 0 0 0 0 0 0 0 0 0 0 0
0 0 0 0 0 0 0 0 0 0 0 0 0 0 0 0 0 0 0 0 0 0 0 0 0 0 0 0 0 0 0 0 0 0 0 0 0 0 0 0 0 0 0 0
0 0 0 0 0 0 0 0 0 0 0 0 0 0 0 0 0 0 0 0 0 0 0 0 0 0 0 0 0 0 0 0 0 0 0 0 0 0 0 0 0 0 0 0
0 0 0 0 0 0 0 0 0 0 0 0 0 0 0 0 0 0 0 0 0 0 0 0 0 0 0 0 0 0 0 0 0 0 0 0 0 0 0 0 0 0 0 0
0 0 0 0 0 0 0 0 0 0 0 0 0 0 0 0 0 0 0 0 0 0 0 0 0 0 0 0 0 0 0 0 0 0 0 0 0 0 0 0 0 0 0 0
0 0 0 0 0 0 0 0 0 0 0 0 0 0 0 0 0 0 0 0 0 0 0 0 0 0 0 0 0 0 0 0 0 0 0 0 0 0 0 0 0 0 0 0
0 0 0 0 0 0 0 0 0 0 0 0 0 0 0 0 0 0 0 0 0 0 0 0 0 0 0 0 0 0 0 0 0 0 0 0 0 0 0 0 0 0 0 0
0 0 0 0 0 0 0 0 0 0 0 0 0 0 0 0 0 0 0 0 0 0 0 0 0 0 0 0 0 0 0 0 0 0 0 0 0 0 0 0 0 0 0 0
0 0 0 0 0 0 0 0 0 0 0 0 0 0 0 0 0 0 0 0 0 0 0 0 0 0 0 0 0 0 0 0 0 0 0 0 0 0 0 0 0 0 0 0
0 0 0 0 0 0 0 0 0 0 0 0 0 0 0 0 0 0 0 0 0 0 0 0 0 0 0 0 0 0 0 0 0 0 0 0 0 0 0 0 0 0 0 0
Wind_Speed
7 10 6 5 3 2 3 3 3 4 5 9 13 12 7 5 8 11 11 12 12 11 9 9 11 13 14 15 16 17 18 17 15 13 13 13 12 10 9 7 11 13 13 13
8 7 5 2 4 4 5 5 4 6 7 9 11 9 5 5 6 5 7 9 10 11 12 13 14 15 15 14 14 15 16 16 14 13 12 11 12 10 10 10 12 12 14 14
8 2 5 4 8 7 3 3 2 5 6 6 9 4 2 2 2 4 6 6 8 11 11 11 13 13 15 15 16 16 16 16 14 16 12 12 10 10 11 12 12 13 16 14
5 4 5 6 6 4 2 1 2 5 7 6 6 4 4 1 3 6 8 9 10 10 9 9 13 15 17 16 15 15 16 16 15 16 15 17 14 13 14 12 12 15 15 14
4 5 6 6 4 4 5 3 1 2 5 4 2 3 2 1 3 5 7 8 9 9 8 9 11 13 15 15 15 15 16 15 16 16 16 16 14 13 12 13 14 13 12 11
4 2 3 2 3 3 4 3 3 5 4 2 1 4 3 0 1 4 6 8 10 9 8 8 9 10 11 12 14 15 16 15 15 16 16 16 17 18 18 17 16 14 12 11
6 4 6 4 6 8 9 8 7 8 5 3 1 2 3 3 2 2 6 9 9 8 8 9 10 11 13 14 15 16 17 16 15 16 16 16 17 17 17 17 16 16 13 13
3 3 6 6 3 2 4 5 5 2 6 6 1 2 4 4 2 3 5 8 8 8 7 8 9 10 12 14 15 16 17 17 17 16 16 14 15 13 12 16 16 15 13 14
3 3 4 4 4 3 3 3 1 4 3 5 3 1 1 1 5 6 7 8 7 7 7 8 8 9 11 12 13 15 16 17 17 17 17 14 14 14 15 16 15 13 14 15
1 4 4 5 5 7 5 4 4 3 4 7 6 3 2 3 8 8 8 9 8 7 7 7 8 10 12 12 11 12 14 15 15 16 15 15 14 14 15 15 16 17 17 17
2 1 5 5 5 4 3 4 5 3 2 3 7 4 5 3 5 8 9 8 7 9 9 8 8 9 11 11 10 12 14 16 16 16 15 15 14 15 15 14 16 16 17 18
2 3 2 2 1 2 3 3 4 1 3 3 3 6 3 2 4 6 8 7 6 7 8 7 7 8 10 11 11 12 13 14 15 15 15 15 16 16 16 15 16 17 17 17
2 3 2 3 1 3 3 1 2 3 2 3 3 7 1 3 5 7 8 7 6 8 8 7 7 8 11 11 11 11 12 13 14 14 15 15 15 16 16 16 16 16 17 17
5 2 3 4 4 2 3 1 2 5 3 3 6 8 8 9 9 11 8 5 7 9 9 9 9 8 9 10 11 11 11 12 14 14 14 14 15 15 15 16 16 16 16 16
4 2 1 2 2 3 3 2 2 4 5 5 6 6 10 7 8 9 7 7 10 11 10 11 11 10 10 10 11 12 12 12 13 14 15 15 15 14 14 15 15 16 16 17
3 2 1 2 2 3 3 3 2 3 3 4 5 7 5 6 6 8 7 8 11 11 11 12 13 12 11 11 12 13 12 12 13 13 14 15 15 15 14 14 15 16 16 16
2 2 0 4 4 4 5 6 5 3 3 4 5 6 6 8 9 8 5 7 9 11 11 12 12 10 10 9 12 12 12 12 12 12 13 14 14 15 15 16 16 15 14 14
4 3 2 2 5 5 3 2 3 2 5 5 5 6 7 7 7 2 4 5 7 8 9 9 9 10 8 8 10 11 11 11 12 12 12 12 13 14 14 14 14 13 12 11
2 5 3 2 3 9 3 2 3 2 5 3 3 6 6 5 5 1 4 4 4 4 5 6 6 7 9 9 11 11 11 11 11 12 12 12 12 13 13 13 14 12 11 10
5 5 5 3 1 7 2 3 3 3 4 3 2 5 5 6 6 3 4 4 4 4 5 6 7 7 8 9 10 10 11 11 12 12 12 12 12 13 11 12 12 12 11 12
1 2 3 4 5 10 3 3 4 2 4 2 2 2 2 2 3 4 4 4 5 5 6 7 7 7 8 9 10 10 11 11 12 13 12 12 12 12 9 10 10 11 12 12
7 6 5 5 4 10 4 6 6 6 2 1 1 1 0 2 2 4 5 6 8 8 8 7 7 8 9 8 9 10 11 12 12 12 12 12 11 11 11 9 10 10 10 10
7 8 7 10 8 3 4 5 3 3 1 2 2 2 1 1 2 4 5 6 6 7 8 7 8 9 9 8 8 10 12 12 12 12 12 12 12 10 9 8 8 8 7 8
5 3 4 5 6 4 2 2 3 3 3 4 4 4 3 1 1 3 5 6 7 7 7 8 9 10 10 9 11 11 12 12 12 13 13 12 10 10 8 9 8 7 7 8
6 6 4 5 3 1 2 3 4 4 6 6 5 4 3 1 1 3 4 6 7 9 9 9 9 11 12 12 12 13 12 12 13 13 13 12 12 9 8 8 7 9 6 10
7 9 8 7 6 6 4 4 6 6 5 5 5 4 3 2 1 3 4 5 5 8 9 10 11 13 13 13 14 13 12 12 13 14 13 11 11 10 10 9 9 13 13 17
Wind_Direction
28 51 33 347 359 180 158 115 87 70 96 80 92 94 75 40 46 36 23 16 8 358 345 355 3 1 359 -0 360 358 356 352 353 352 348 343 339 337 334 335 340 335 336 335
45 27 324 310 17 70 108 105 102 103 91 98 104 95 73 42 50 37 18 7 355 349 353 357 360 359 356 353 354 355 354 350 353 352 344 338 331 330 332 334 332 333 335 331
92 336 337 41 32 40 55 122 161 144 83 95 117 99 86 40 50 38 17 359 354 355 348 351 357 356 353 352 352 351 349 348 353 353 346 341 336 335 338 336 333 335 332 329
71 9 30 46 34 21 314 293 253 180 146 176 156 167 197 191 17 14 359 351 348 346 345 352 356 354 352 349 347 348 347 348 355 354 349 347 344 339 335 330 326 326 324 322
42 15 27 33 358 341 280 317 263 156 144 106 126 142 210 292 5 351 339 335 331 336 341 351 355 353 349 346 349 349 345 350 354 351 347 345 340 336 330 329 325 324 318 310
22 35 48 350 335 340 314 23 76 60 81 117 280 192 232 247 341 314 321 325 325 332 342 346 348 351 346 350 355 349 346 349 352 348 346 343 340 337 333 333 330 329 324 319
11 20 2 5 11 3 25 42 20 5 1 266 125 130 205 180 193 276 311 317 321 333 341 340 345 352 352 355 357 348 346 347 350 347 345 342 341 336 332 331 327 326 326 328
41 354 350 3 38 8 32 78 106 271 273 288 346 199 218 185 219 272 293 304 315 328 334 336 345 350 350 355 356 350 347 346 347 345 342 339 341 337 331 328 322 323 325 325
32 306 330 358 4 57 73 72 133 162 278 281 271 175 241 231 308 302 300 310 323 333 338 342 352 355 352 355 356 348 345 344 344 342 339 338 340 337 333 328 325 327 326 325
37 308 325 326 36 31 97 115 72 66 336 303 301 237 206 280 301 308 316 322 330 343 347 357 3 1 354 351 349 343 342 341 339 339 338 339 336 335 335 333 332 329 328 328
38 336 325 21 38 352 36 56 78 94 173 240 298 293 172 233 294 309 311 319 337 344 349 359 3 0 349 344 347 344 344 343 341 339 337 335 335 337 337 336 332 330 329 330
62 106 322 310 348 355 115 118 127 153 266 208 240 272 174 197 297 308 314 326 339 342 344 350 356 352 346 342 345 344 345 344 341 339 337 336 336 337 337 335 333 332 332 333
87 93 17 348 307 7 38 53 147 132 141 191 221 274 216 317 325 331 330 334 330 343 342 345 352 347 343 340 342 341 342 342 340 340 338 337 336 337 335 334 333 334 334 335
101 104 175 237 266 301 298 284 158 137 181 234 237 278 313 330 332 330 333 328 333 349 340 345 346 341 338 339 339 337 339 340 341 340 338 337 336 334 333 334 335 336 336 336
92 128 256 268 1 293 250 244 187 171 188 211 261 281 294 304 313 315 326 337 346 347 343 348 346 340 338 340 339 339 337 338 339 338 339 338 335 333 333 335 339 338 339 339
68 112 344 274 324 298 243 209 181 176 199 241 273 281 267 297 314 323 336 349 348 343 345 347 343 339 338 340 340 338 333 333 335 335 335 336 337 337 337 337 342 341 339 338
86 111 10 286 321 357 275 205 181 203 224 230 252 261 300 319 326 330 354 2 348 342 346 344 339 334 330 334 337 331 329 328 333 333 333 335 336 338 339 342 342 340 337 337
127 112 112 325 13 291 275 127 156 241 270 247 244 271 300 308 315 28 53 4 344 342 340 333 331 329 323 324 330 326 325 328 332 332 332 334 335 336 337 342 341 337 334 335
117 128 109 79 313 282 294 230 178 211 284 257 245 289 311 331 315 121 52 10 341 334 325 320 320 316 318 323 327 327 326 329 333 335 334 333 333 335 336 341 338 335 333 336
60 90 109 119 267 267 271 161 131 105 299 276 265 304 328 351 336 337 24 354 343 336 325 319 319 318 320 318 324 326 326 329 332 333 331 329 330 332 332 339 335 335 338 343
146 89 133 167 232 266 237 143 113 126 269 294 341 344 355 316 286 340 358 349 346 335 321 318 319 319 316 316 322 323 323 323 324 326 327 328 328 324 330 334 331 334 340 341
184 172 188 161 214 263 197 140 173 214 231 12 56 76 7 309 339 345 343 339 339 331 324 321 322 319 315 313 319 318 317 315 318 320 321 322 321 320 332 327 324 328 333 336
203 193 185 191 211 247 176 179 189 164 126 94 123 102 86 28 330 331 331 329 328 325 321 323 318 316 313 311 313 313 312 313 316 316 314 312 313 311 313 316 316 322 327 330
249 176 177 244 259 237 210 160 102 84 108 116 114 108 108 130 321 333 331 332 330 325 326 328 323 319 315 314 316 309 309 313 313 311 309 308 308 304 302 309 315 317 318 318
224 172 195 251 261 162 163 144 123 108 111 110 100 98 106 107 6 339 321 320 324 330 330 328 324 317 316 316 313 312 313 311 310 308 306 307 307 300 295 295 295 304 299 306
192 177 177 215 202 163 171 142 136 140 140 134 126 112 84 69 15 333 318 315 320 326 328 324 320 318 315 314 311 309 309 309 309 310 311 310 310 307 307 303 298 297 307 317